Tracking 19706 objects as of 16-Jun-2019
HD Live streaming from Space Station
objects crossing your sky now

EUTELSAT 1-F2 (ECS 2)

Track EUTELSAT 1-F2 (ECS 2) now!
EUTELSAT 1-F2 (ECS 2) is classified as:


NORAD ID: 15158
Int'l Code: 1984-081A
Perigee: 36,183.7 km
Apogee: 36,240.1 km
Inclination: 15.1 °
Period: 1,457.5 minutes
Semi major axis: 42582 km
RCS: 5.0119 m2 (large)
Launch date: August 4, 1984
Source: European Telecommunications Satellite Organization (EUTE)
Launch site: FRENCH GUIANA (FRGUI)
aabbcc
Your satellite tracking list
Your tracking list is empty




NASA's NSSDC Master Catalog

Two Line Element Set (TLE):
1 15158U 84081A   19167.23162580 -.00000183  00000-0  00000+0 0  9994
2 15158  15.1421 353.3100 0006618 134.0153 227.9398  0.98798383 92038
Source of the keplerian elements: AFSPC